Tracking 28790 objects as of 19-Apr-2024
HD Live streaming from Space Station
objects crossing your sky now

WESTAR 4

Track WESTAR 4 now!
WESTAR 4 is classified as:


NORAD ID: 13069
Int'l Code: 1982-014A
Perigee: 35,930.2 km
Apogee: 35,937.4 km
Inclination: 13.5 °
Period: 1,443.3 minutes
Semi major axis: 42304 km
RCS: 3.1664 m2 (large)
Launch date: February 26, 1982
Source: United States (US)
Launch site: AIR FORCE EASTERN TEST RANGE (AFETR)
Your satellite tracking list
Your tracking list is empty




NASA's NSSDC Master Catalog

Two Line Element Set (TLE):
1 13069U 82014A   24109.88038709 -.00000361  00000-0  00000-0 0  9994
2 13069  13.4576 340.5908 0000848 244.4816  66.7552  0.99774157 38567
Source of the keplerian elements: AFSPC